Hampton, VA

12:33 PM EST on January 24, 2017 (GMT -0500)
Langley Air Force Base

Weather History for KLFI - October, 2013

Change the Weather History Date:

Thursday, October 17, 2013

  Actual Average Record
Temperature  
Mean Temperature 68 °F -  
Max Temperature 77 °F 65 °F 85 °F (1930)
Min Temperature 60 °F 51 °F 41 °F (1939)
Cooling Degree Days 3    
Growing Degree Days 18 (Base 50)    
Moisture  
Dew Point 64 °F    
Average Humidity 83    
Maximum Humidity 100    
Minimum Humidity 62    
Precipitation  
Precipitation 0.00 in - - ()
Sea Level Pressure  
Sea Level Pressure 29.89 in    
Wind  
Wind Speed 4 mph (SW)    
Max Wind Speed 12 mph    
Max Gust Speed -    
Visibility 10 miles    
Events Rain    
Averages and records for this station are not official NWS values.
T = Trace of Precipitation, MM = Missing Value Source: NWS Daily Summary

Daily Weather History Graph

Daily Weather History Graph

Search for Another Location

Airport or City:

Trip Planner

Search our weather history database for the weather conditions in past years. The results will help you decide how hot, cold, wet, or windy it might be!

Date:

Astronomy

Oct. 17, 2013 Rise Set
Actual Time 7:15 AM EDT 6:25 PM EDT
Civil Twilight 6:48 AM EDT 6:51 PM EDT
Nautical Twilight 6:18 AM EDT 7:22 PM EDT
Astronomical Twilight 5:48 AM EDT 7:52 PM EDT
Moon 5:37 PM EDT (10/17) 5:46 AM EDT (10/17)
Length of Visible Light 12h 02m
Length of Day
11h 10m
Waxing Gibbous, 98% of the Moon is Illuminated
Oct 17
Waxing Gibbous
Oct 18
Full
Oct 26
Last Quarter
Nov 3
New
Nov 10
First Quarter

Hourly Weather History & Observations

Time (EDT) Temp. Dew Point Humidity Pressure Visibility Wind Dir Wind Speed Gust Speed Precip Events Conditions
12:58 AM 64.4 °F 64.4 °F 100% 29.97 in 10.0 mi SW 2.3 mph - N/A   Mostly Cloudy
1:58 AM 63.0 °F 63.0 °F 100% 29.97 in 10.0 mi West 2.3 mph - N/A   Overcast
2:58 AM 62.8 °F 62.8 °F 100% 29.95 in 10.0 mi South 2.3 mph - N/A   Partly Cloudy
3:58 AM 63.1 °F 63.1 °F 100% 29.95 in 10.0 mi SW 4.6 mph - N/A   Overcast
4:58 AM 63.3 °F 63.3 °F 100% 29.94 in 10.0 mi SSW 2.3 mph - N/A   Mostly Cloudy
5:58 AM 62.6 °F 62.6 °F 100% 29.94 in 10.0 mi South 2.3 mph - N/A   Partly Cloudy
6:58 AM 60.8 °F 60.8 °F 100% 29.95 in 10.0 mi Calm Calm - N/A   Mostly Cloudy
7:58 AM 63.5 °F 63.5 °F 100% 29.95 in 10.0 mi South 2.3 mph - N/A   Scattered Clouds
8:58 AM 66.4 °F 66.4 °F 100% 29.96 in 10.0 mi Variable 3.5 mph - N/A   Partly Cloudy
9:58 AM 70.2 °F 62.2 °F 76% 29.95 in 10.0 mi SW 4.6 mph - N/A   Clear
10:58 AM 72.1 °F 62.2 °F 71% 29.93 in 10.0 mi Variable 4.6 mph - N/A   Partly Cloudy
11:58 AM 74.5 °F 63.1 °F 68% 29.94 in 10.0 mi SW 8.1 mph - N/A   Clear
12:58 PM 76.1 °F 63.9 °F 66% 29.92 in 10.0 mi Variable 4.6 mph - N/A   Partly Cloudy
1:58 PM 76.3 °F 63.1 °F 64% 29.89 in 10.0 mi SSW 6.9 mph - N/A   Scattered Clouds
2:58 PM 76.3 °F 62.4 °F 62% 29.88 in 10.0 mi SW 9.2 mph - N/A   Scattered Clouds
3:58 PM 76.8 °F 63.1 °F 63% 29.87 in 10.0 mi SSW 11.5 mph - N/A   Partly Cloudy
4:58 PM 75.0 °F 63.1 °F 66% 29.85 in 10.0 mi SW 9.2 mph - N/A   Scattered Clouds
5:58 PM 73.4 °F 62.8 °F 69% 29.85 in 10.0 mi WSW 6.9 mph - N/A   Mostly Cloudy
6:58 PM 71.1 °F 63.9 °F 78% 29.84 in 10.0 mi SW 4.6 mph - N/A   Mostly Cloudy
7:58 PM 71.8 °F 64.8 °F 78% 29.85 in 10.0 mi SSW 5.8 mph - N/A   Overcast
8:58 PM 71.6 °F 65.1 °F 80% 29.85 in 10.0 mi SSW 4.6 mph - N/A   Mostly Cloudy
9:37 PM 71.6 °F 66.2 °F 83% 29.83 in 10.0 mi SSW 6.9 mph - N/A Rain Light Rain
9:48 PM 71.6 °F 66.2 °F 83% 29.83 in 10.0 mi SSW 6.9 mph - N/A   Scattered Clouds
9:53 PM 71.6 °F 66.2 °F 83% 29.83 in 10.0 mi SSW 5.8 mph - N/A Rain Light Rain
9:58 PM 71.4 °F 65.8 °F 82% 29.85 in 10.0 mi SSW 6.9 mph - 0.00 in Rain Light Rain
10:02 PM 71.6 °F 66.2 °F 83% 29.83 in 10.0 mi SSW 4.6 mph - N/A   Mostly Cloudy
10:09 PM 71.6 °F 66.2 °F 83% 29.83 in 10.0 mi SW 5.8 mph - N/A Rain Light Rain
10:44 PM 71.6 °F 66.2 °F 83% 29.83 in 10.0 mi SW 5.8 mph - N/A   Overcast
10:58 PM 70.9 °F 66.0 °F 85% 29.85 in 10.0 mi SW 4.6 mph - 0.00 in   Overcast
11:20 PM 71.6 °F 66.2 °F 83% 29.83 in 10.0 mi SW 8.1 mph - N/A Rain Light Rain
11:34 PM 69.8 °F 66.2 °F 88% 29.83 in 10.0 mi WSW 8.1 mph - N/A   Overcast
11:58 PM 70.3 °F 66.7 °F 88% 29.86 in 10.0 mi WSW 8.1 mph - 0.00 in   Overcast